Weather Roundup
Issued by NWS Springfield, MO

Home | Current Version | Previous Version | Text Only | Print | Product List | Glossary On
Versions: 1 2 3 4 5 6 7 8 9 10 11 12 13 14 15 16 17 18 19 20 21 22 23 24 25 26 27 28 29 30 31 32 33 34 35 36 37 38 39 40 41 42 43 44 45 46 47 48 49 50
000
NZUS99 KSGF 060557
HRRSGF

HOURLY WEATHER
NATIONAL WEATHER SERVICE SPRINGFIELD MO
100 AM CDT FRI MAY 06 2016

......SGF CWA......

CITY           SKY/WX    TMP DP  RH WIND       PRES   REMARKS
SPRINGFIELD    CLEAR     49  37  63 SE5       30.06S
6HR MIN TEMP:  45; 6HR MAX TEMP:  68;

JOPLIN         CLEAR     50  44  80 S3        30.08R
6HR MIN TEMP:  49; 6HR MAX TEMP:  69;

WEST PLAINS    PTCLDY    45  38  76 CALM      30.08R
6HR MIN TEMP:  45; 6HR MAX TEMP:  66;

ROLLA          CLEAR     48  38  68 CALM      30.05R
6HR MIN TEMP:  45; 6HR MAX TEMP:  64;


......SURROUNDING SGF CWA......

CITY           SKY/WX    TMP DP  RH WIND       PRES   REMARKS
CHANUTE        CLEAR     50  45  83 E5        30.07R
PARSONS        CLEAR     51  49  92 CALM      30.08R
COFFEYVILLE    CLEAR     54  50  86 CALM      30.07R
EMPORIA        CLEAR     55  46  71 S7        30.06S
HARRISON AR    CLEAR     49  36  61 W5        30.09R

......KANSAS AND MISSOURI......

CITY           SKY/WX    TMP DP  RH WIND       PRES   REMARKS
KANSAS CTY INT CLEAR     54  39  57 S6        30.05S
SEDALIA        CLEAR     56  35  45 S5        30.07R
ST JOSEPH      CLEAR     54  49  83 CALM      30.05R
ST LOUIS       CLEAR     53  44  71 CALM      30.04R
WICHITA        PTCLDY    59  45  59 S5        30.06S
TOPEKA         CLEAR     53  50  89 CALM      30.06R
OLATHE         CLEAR     54  44  69 CALM      30.06S

......TENNESSEE......

CITY           SKY/WX    TMP DP  RH WIND       PRES   REMARKS
MEMPHIS        NOT AVBL
NASHVILLE      CLEAR     49  43  80 CALM      29.98S

......ARKANSAS.......

CITY           SKY/WX    TMP DP  RH WIND       PRES   REMARKS
FAYETTEVILLE   CLEAR     46  45  96 S3        30.09R
FT SMITH       CLEAR     57  49  74 SE3       30.06R
LITTLE ROCK    CLEAR     56  42  59 NE7       30.06R

......OKLAHOMA.......

CITY           SKY/WX    TMP DP  RH WIND       PRES   REMARKS
TULSA          PTCLDY    57  51  80 CALM      30.05R
PONCA CITY     CLEAR     53  47  79 CALM      30.06S
MCALESTER      PTCLDY    51  48  89 SW3       30.07R
OKLAHOMA CITY  PTCLDY    58  47  66 SE6       30.06S

......IOWA............

CITY           SKY/WX    TMP DP  RH WIND       PRES   REMARKS
DES MOINES     NOT AVBL
QUAD CITIES    CLEAR     46  41  82 CALM      29.99S

......ILLINOIS........

CITY           SKY/WX    TMP DP  RH WIND       PRES   REMARKS
QUINCY         NOT AVBL
CHICAGO        CLEAR     45  38  76 CALM      29.99R




USA.gov is the U.S. government's official web portal to all federal, state and local government web resources and services.